This is the latest recevied weather packets stored in our database for station/object N4YH-13. If no packets are shown the sender has not sent any weather packets the latest 10 day(s).
| Time | Temp. | Humidity | Pressure | Rain* | Wind** | Luminosity | Snow |
|---|---|---|---|---|---|---|---|
| 1777754283 | 15° C | 40% | 1012.7 hPa | 0 mm | - | - | - |
| 1777754164 | 15.56° C | 40% | 1012.7 hPa | 0 mm | - | - | - |
| 1777754044 | 15.56° C | 39% | 1012.7 hPa | 0 mm | - | - | - |
| 1777753923 | 15.56° C | 40% | 1012.5 hPa | 0 mm | - | - | - |
| 1777753804 | 15° C | 42% | 1012.4 hPa | 0 mm | - | - | - |
| 1777753684 | 15° C | 42% | 1012.4 hPa | 0 mm | - | - | - |
| 1777753564 | 15.56° C | 41% | 1012.5 hPa | 0 mm | - | - | - |
| 1777753444 | 15.56° C | 40% | 1012.5 hPa | 0 mm | - | - | - |
| 1777753323 | 15.56° C | 40% | 1012.6 hPa | 0 mm | - | - | - |
| 1777753204 | 16.11° C | 41% | 1012.6 hPa | 0 mm | - | - | - |
| 1777753084 | 16.11° C | 40% | 1012.6 hPa | 0 mm | - | - | - |
| 1777752964 | 15.56° C | 43% | 1012.7 hPa | 0 mm | - | - | - |
| 1777752843 | 15.56° C | 44% | 1012.6 hPa | 0 mm | - | - | - |
| 1777752724 | 15.56° C | 41% | 1012.7 hPa | 0 mm | - | - | - |
| 1777752604 | 16.11° C | 43% | 1012.7 hPa | 0 mm | - | - | - |
| 1777752484 | 15.56° C | 42% | 1012.6 hPa | 0 mm | - | - | - |
| 1777752364 | 15.56° C | 40% | 1012.6 hPa | 0 mm | - | - | - |
| 1777752245 | 15.56° C | 39% | 1012.7 hPa | 0 mm | - | - | - |
| 1777752124 | 16.11° C | 40% | 1012.8 hPa | 0 mm | - | - | - |
| 1777752004 | 16.11° C | 41% | 1012.8 hPa | 0 mm | - | - | - |
| 1777751884 | 16.11° C | 40% | 1012.8 hPa | 0 mm | - | - | - |
| 1777751765 | 16.67° C | 40% | 1012.8 hPa | 0 mm | - | - | - |
| 1777751644 | 16.67° C | 41% | 1012.8 hPa | 0 mm | - | - | - |
| 1777751524 | 16.67° C | 40% | 1012.8 hPa | 0 mm | - | - | - |
| 1777751404 | 16.11° C | 42% | 1012.8 hPa | 0 mm | - | - | - |
* Rain latest hour (hover to see other rain measurements)
** Current wind speed in m/s (hover to see current wind gust speed)